NPV7810 LICC-LSGG

Flight info

Callsign NPV7810
Flight time N/A
Altitude 36000
Route BUDIN DCT NERAR DCT TAGEL DCT LUNAK DCT KARDU DCT IDONA DCT TONDA/N0425F280 DCT PIMOT/N0388F220 DCT AOSTA L615 BANKO
Aircraft B738/M-SDE2E3FGHIRWXY/LB1

Departure

Time 2026-05-01 13:53
Airport Catania-Fontanarossa Airport (LICC)

Arrival

Time N/A
Airport Geneva International Airport (LSGG)
Time Latitude Longitude Altitude Speed Heading
2026-05-01 13:13 37.46946 15.06527 50 ft 0 kts 19°
2026-05-01 13:40 37.46933 15.06521 50 ft 4 kts 18°
2026-05-01 13:40 37.46908 15.06512 50 ft 4 kts 17°
2026-05-01 13:40 37.46884 15.06502 50 ft 4 kts 18°
2026-05-01 13:40 37.46863 15.06495 45 ft 4 kts 356°
2026-05-01 13:41 37.46844 15.06505 48 ft 4 kts 297°
2026-05-01 13:41 37.46837 15.06535 50 ft 4 kts 272°
2026-05-01 13:41 37.46837 15.06537 50 ft 0 kts 271°
2026-05-01 13:43 37.46836 15.06528 49 ft 3 kts 264°
2026-05-01 13:44 37.46831 15.06487 47 ft 7 kts 262°
2026-05-01 13:44 37.46823 15.06402 50 ft 12 kts 265°
2026-05-01 13:44 37.46812 15.06288 50 ft 13 kts 261°
2026-05-01 13:44 37.46805 15.06174 50 ft 13 kts 269°
2026-05-01 13:45 37.46804 15.06065 50 ft 12 kts 259°
2026-05-01 13:45 37.46789 15.05959 49 ft 12 kts 264°
2026-05-01 13:45 37.46783 15.05855 50 ft 12 kts 264°
2026-05-01 13:45 37.46774 15.05753 50 ft 12 kts 262°
2026-05-01 13:46 37.46762 15.05655 50 ft 11 kts 262°
2026-05-01 13:46 37.46753 15.05559 50 ft 11 kts 264°
2026-05-01 13:46 37.46745 15.05465 50 ft 11 kts 264°
2026-05-01 13:46 37.46737 15.05375 50 ft 10 kts 263°
2026-05-01 13:47 37.46707 15.05298 49 ft 10 kts 223°
2026-05-01 13:47 37.46673 15.05259 50 ft 0 kts 223°
2026-05-01 13:51 37.46663 15.05247 50 ft 6 kts 223°
2026-05-01 13:51 37.46599 15.05197 50 ft 15 kts 182°
2026-05-01 13:52 37.46566 15.05308 50 ft 16 kts 83°
2026-05-01 13:52 37.46576 15.05419 49 ft 0 kts 84°
2026-05-01 13:52 37.46592 15.05629 45 ft 61 kts 84°
2026-05-01 13:53 37.46663 15.06465 52 ft 128 kts 84°
2026-05-01 13:53 37.46876 15.09102 1575 ft 146 kts 84°
2026-05-01 13:53 37.47010 15.10430 2368 ft 164 kts 83°
2026-05-01 13:54 37.47230 15.11956 2912 ft 191 kts 79°
2026-05-01 13:54 37.47488 15.13666 3484 ft 205 kts 78°
2026-05-01 13:54 37.47769 15.15552 3724 ft 232 kts 77°
2026-05-01 13:54 37.48068 15.17611 4247 ft 243 kts 76°
2026-05-01 13:55 37.48365 15.19705 4914 ft 249 kts 77°
2026-05-01 13:55 37.48671 15.21894 5525 ft 260 kts 77°
2026-05-01 13:55 37.48988 15.24178 6317 ft 268 kts 76°
2026-05-01 13:55 37.49310 15.26507 7116 ft 272 kts 76°
2026-05-01 13:56 37.49948 15.28732 7843 ft 271 kts 49°
2026-05-01 13:56 37.51342 15.30329 8441 ft 276 kts 28°
2026-05-01 13:56 37.52993 15.31624 9186 ft 282 kts 26°
2026-05-01 13:56 37.54691 15.32924 10007 ft 287 kts 26°
2026-05-01 13:57 37.56484 15.34037 10591 ft 292 kts
2026-05-01 13:57 37.57837 15.34166 10712 ft 300 kts 349°
2026-05-01 13:57 37.60683 15.33368 10989 ft 329 kts 342°
2026-05-01 13:57 37.62927 15.32625 11345 ft 344 kts 342°
2026-05-01 13:58 37.65261 15.31866 12086 ft 347 kts 343°
2026-05-01 13:58 37.67601 15.31133 13030 ft 345 kts 343°
2026-05-01 13:58 37.69951 15.30420 13802 ft 349 kts 343°
2026-05-01 13:58 37.72326 15.29716 14461 ft 353 kts 343°
2026-05-01 13:59 37.74733 15.29014 15109 ft 357 kts 343°
2026-05-01 13:59 37.77165 15.28311 15793 ft 359 kts 342°
2026-05-01 13:59 37.79606 15.27610 16476 ft 361 kts 342°
2026-05-01 13:59 37.82074 15.26902 17103 ft 365 kts 342°
2026-05-01 14:00 37.84561 15.26190 17727 ft 369 kts 341°
2026-05-01 14:00 37.87074 15.25462 18385 ft 372 kts 341°
2026-05-01 14:00 37.89613 15.24726 18934 ft 376 kts 341°
2026-05-01 14:00 37.92175 15.23995 19454 ft 380 kts 341°
2026-05-01 14:01 37.94765 15.23257 20007 ft 382 kts 341°
2026-05-01 14:01 37.97371 15.22533 20601 ft 384 kts 341°
2026-05-01 14:01 37.99946 15.21794 21146 ft 386 kts 340°
2026-05-01 14:01 38.02564 15.21033 21680 ft 387 kts 340°
2026-05-01 14:02 38.05194 15.20278 22227 ft 387 kts 340°
2026-05-01 14:02 38.07839 15.19517 22621 ft 393 kts 340°
2026-05-01 14:02 38.10520 15.18740 23057 ft 397 kts 339°
2026-05-01 14:02 38.13213 15.17953 23634 ft 397 kts 338°
2026-05-01 14:03 38.15895 15.17139 24165 ft 396 kts 339°
2026-05-01 14:03 38.18601 15.16365 24530 ft 400 kts 339°
2026-05-01 14:03 38.21331 15.15592 24862 ft 403 kts 339°
2026-05-01 14:03 38.24079 15.14811 25220 ft 406 kts 339°
2026-05-01 14:04 38.26836 15.14021 25604 ft 407 kts 339°
2026-05-01 14:04 38.29607 15.13223 25975 ft 409 kts 338°
2026-05-01 14:04 38.32391 15.12418 26312 ft 411 kts 338°
2026-05-01 14:04 38.34242 15.11881 26530 ft 413 kts 338°
2026-05-01 14:05 38.38002 15.10790 27038 ft 415 kts 338°
2026-05-01 14:05 38.40815 15.09974 27420 ft 415 kts 338°
2026-05-01 14:05 38.43639 15.09149 27721 ft 417 kts 337°
2026-05-01 14:05 38.46373 15.08014 27973 ft 410 kts 329°
2026-05-01 14:06 38.48934 15.06456 28292 ft 405 kts 323°
2026-05-01 14:06 38.51253 15.04561 28698 ft 397 kts 316°
2026-05-01 14:06 38.53439 15.02429 29215 ft 394 kts 316°
2026-05-01 14:06 38.55607 15.00304 29712 ft 392 kts 316°
2026-05-01 14:07 38.57768 14.98186 30133 ft 391 kts 315°
2026-05-01 14:07 38.59924 14.96078 30500 ft 390 kts 316°
2026-05-01 14:07 38.62080 14.93973 30873 ft 390 kts 316°
2026-05-01 14:08 38.66397 14.89764 31517 ft 389 kts 316°
2026-05-01 14:08 38.68549 14.87667 31889 ft 388 kts 317°
2026-05-01 14:08 38.70696 14.85575 32239 ft 387 kts 317°
2026-05-01 14:08 38.72834 14.83488 32563 ft 387 kts 317°
2026-05-01 14:09 38.74973 14.81400 32886 ft 386 kts 317°
2026-05-01 14:09 38.77108 14.79314 33220 ft 385 kts 317°
2026-05-01 14:09 38.79238 14.77230 33552 ft 385 kts 317°
2026-05-01 14:09 38.81342 14.75171 33870 ft 384 kts 317°
2026-05-01 14:10 38.83463 14.73094 34179 ft 383 kts 317°
2026-05-01 14:10 38.85582 14.71017 34431 ft 383 kts 317°
2026-05-01 14:10 38.87702 14.68936 34687 ft 384 kts 318°
2026-05-01 14:10 38.89830 14.66846 34880 ft 385 kts 318°
2026-05-01 14:11 38.91963 14.64750 35088 ft 387 kts 318°
2026-05-01 14:11 38.96262 14.60519 35348 ft 392 kts 318°
2026-05-01 14:11 38.98438 14.58376 35471 ft 395 kts 318°
2026-05-01 14:12 39.00623 14.56222 35658 ft 395 kts 318°
2026-05-01 14:12 39.02807 14.54069 35893 ft 395 kts 318°
2026-05-01 14:12 39.04960 14.51945 36106 ft 395 kts 318°
2026-05-01 14:12 39.07154 14.49776 36148 ft 399 kts 318°
2026-05-01 14:13 39.10843 14.46129 36161 ft 398 kts 318°
2026-05-01 14:13 39.15934 14.41086 36172 ft 397 kts 319°
2026-05-01 14:14 39.20329 14.36724 36164 ft 399 kts 319°
2026-05-01 14:14 39.24732 14.32346 36170 ft 400 kts 319°
2026-05-01 14:15 39.29155 14.27944 36169 ft 402 kts 319°
2026-05-01 14:15 39.33627 14.23587 36169 ft 403 kts 320°
2026-05-01 14:16 39.38136 14.19347 36198 ft 403 kts 321°
2026-05-01 14:16 39.42671 14.15078 36179 ft 403 kts 321°
2026-05-01 14:17 39.47201 14.10790 36168 ft 403 kts 321°
2026-05-01 14:17 39.51715 14.06501 36169 ft 402 kts 321°
2026-05-01 14:18 39.56213 14.02217 36171 ft 401 kts 321°
2026-05-01 14:18 39.59945 13.98657 36172 ft 400 kts 321°
2026-05-01 14:19 39.65182 13.93653 36176 ft 400 kts 321°
2026-05-01 14:19 39.69653 13.89373 36180 ft 400 kts 321°
2026-05-01 14:20 39.76361 13.82939 36177 ft 398 kts 321°
2026-05-01 14:21 39.80066 13.79378 36177 ft 398 kts 321°
2026-05-01 14:21 39.85239 13.74398 36184 ft 398 kts 321°
2026-05-01 14:22 39.91185 13.68663 36183 ft 397 kts 321°
2026-05-01 14:22 39.95625 13.64372 36189 ft 397 kts 321°
2026-05-01 14:23 40.00037 13.60101 36189 ft 397 kts 321°
2026-05-01 14:23 40.04478 13.55795 36189 ft 398 kts 321°
2026-05-01 14:24 40.08918 13.51482 36189 ft 398 kts 321°
2026-05-01 14:24 40.13364 13.47158 36193 ft 398 kts 322°
2026-05-01 14:25 40.17813 13.42821 36198 ft 399 kts 322°
2026-05-01 14:25 40.22265 13.38474 36196 ft 399 kts 321°
2026-05-01 14:26 40.28944 13.31942 36198 ft 400 kts 321°
2026-05-01 14:27 40.33359 13.27573 36205 ft 400 kts 321°
2026-05-01 14:27 40.37788 13.23136 36241 ft 401 kts 321°
2026-05-01 14:28 40.44455 13.16444 36205 ft 403 kts 321°
2026-05-01 14:28 40.48911 13.11966 36186 ft 403 kts 322°
2026-05-01 14:29 40.53366 13.07485 36198 ft 403 kts 322°
2026-05-01 14:30 40.62280 12.98496 36225 ft 404 kts 322°
2026-05-01 14:31 40.68968 12.91730 36208 ft 405 kts 322°
2026-05-01 14:31 40.73435 12.87202 36212 ft 405 kts 322°
2026-05-01 14:32 40.77898 12.82669 36213 ft 405 kts 322°
2026-05-01 14:32 40.82369 12.78121 36208 ft 405 kts 322°
2026-05-01 14:33 40.86794 12.73609 36208 ft 404 kts 323°
2026-05-01 14:33 40.91247 12.69064 36213 ft 403 kts 323°
2026-05-01 14:34 40.95684 12.64527 36210 ft 403 kts 323°
2026-05-01 14:34 41.00112 12.59991 36209 ft 402 kts 323°
2026-05-01 14:35 41.04537 12.55450 36213 ft 402 kts 323°
2026-05-01 14:35 41.08958 12.50905 36207 ft 402 kts 323°
2026-05-01 14:36 41.13356 12.46375 36206 ft 402 kts 324°
2026-05-01 14:36 41.17780 12.41812 36201 ft 403 kts 323°
2026-05-01 14:37 41.22197 12.37247 36193 ft 402 kts 324°
2026-05-01 14:37 41.26612 12.32676 36201 ft 402 kts 324°
2026-05-01 14:38 41.31034 12.28090 36194 ft 402 kts 324°
2026-05-01 14:38 41.35420 12.23533 36201 ft 402 kts 324°
2026-05-01 14:39 41.39842 12.18931 36189 ft 403 kts 324°
2026-05-01 14:39 41.44257 12.14327 36191 ft 403 kts 324°
2026-05-01 14:40 41.48675 12.09712 36188 ft 403 kts 324°
2026-05-01 14:40 41.53099 12.05083 36188 ft 404 kts 324°
2026-05-01 14:41 41.57516 12.00452 36173 ft 403 kts 324°
2026-05-01 14:41 41.61900 11.95848 36193 ft 403 kts 324°
2026-05-01 14:42 41.66308 11.91210 36204 ft 403 kts 324°
2026-05-01 14:42 41.70726 11.86556 36220 ft 404 kts 324°
2026-05-01 14:43 41.75168 11.81932 36225 ft 404 kts 324°
2026-05-01 14:43 41.79592 11.77347 36220 ft 404 kts 324°
2026-05-01 14:44 41.84049 11.72716 36216 ft 405 kts 325°
2026-05-01 14:44 41.90731 11.65745 36187 ft 405 kts 324°
2026-05-01 14:45 41.97409 11.58756 36208 ft 406 kts 324°
2026-05-01 14:46 42.01842 11.54106 36212 ft 406 kts 324°
2026-05-01 14:46 42.08523 11.47082 36219 ft 406 kts 324°
2026-05-01 14:47 42.12983 11.42383 36224 ft 407 kts 324°
2026-05-01 14:48 42.19670 11.35321 36226 ft 407 kts 324°
2026-05-01 14:48 42.26349 11.28248 36223 ft 407 kts 324°
2026-05-01 14:49 42.35218 11.18824 36240 ft 407 kts 324°
2026-05-01 14:50 42.44127 11.09324 36237 ft 408 kts 324°
2026-05-01 14:51 42.50809 11.02175 36243 ft 408 kts 324°
2026-05-01 14:52 42.57489 10.95008 36242 ft 407 kts 324°
2026-05-01 14:53 42.64122 10.87871 36243 ft 407 kts 324°
2026-05-01 14:53 42.68555 10.83089 36242 ft 407 kts 324°
2026-05-01 14:54 42.72985 10.78302 36239 ft 406 kts 324°
2026-05-01 14:54 42.77260 10.73675 36248 ft 406 kts 324°
2026-05-01 14:55 42.81686 10.68875 36249 ft 407 kts 324°
2026-05-01 14:55 42.86115 10.64063 36256 ft 407 kts 324°
2026-05-01 14:56 42.90514 10.59273 36255 ft 407 kts 324°
2026-05-01 14:56 42.94926 10.54461 36262 ft 407 kts 324°
2026-05-01 14:57 42.99370 10.49625 36261 ft 409 kts 324°
2026-05-01 14:57 43.06012 10.42633 36267 ft 410 kts 325°
2026-05-01 14:58 43.10545 10.37869 36268 ft 412 kts 325°
2026-05-01 14:58 43.15066 10.33094 36272 ft 412 kts 325°
2026-05-01 14:59 43.19561 10.28330 36265 ft 413 kts 325°
2026-05-01 14:59 43.23904 10.23716 36279 ft 414 kts 325°
2026-05-01 15:00 43.30702 10.16477 36273 ft 414 kts 324°
2026-05-01 15:01 43.35259 10.11612 36287 ft 415 kts 324°
2026-05-01 15:01 43.39830 10.06724 36279 ft 416 kts 324°
2026-05-01 15:02 43.44401 10.01825 36289 ft 417 kts 324°
2026-05-01 15:02 43.48978 9.96911 36297 ft 417 kts 324°
2026-05-01 15:03 43.53507 9.92038 36290 ft 418 kts 324°
2026-05-01 15:03 43.58083 9.87105 36290 ft 418 kts 324°
2026-05-01 15:04 43.62665 9.82155 36255 ft 418 kts 324°
2026-05-01 15:04 43.67239 9.77205 36283 ft 418 kts 323°
2026-05-01 15:05 43.71050 9.73073 36299 ft 418 kts 323°
2026-05-01 15:05 43.76171 9.67510 36295 ft 420 kts 323°
2026-05-01 15:06 43.80765 9.62508 36291 ft 420 kts 323°
2026-05-01 15:06 43.85363 9.57491 36289 ft 421 kts 323°
2026-05-01 15:07 43.89939 9.52489 36295 ft 422 kts 323°
2026-05-01 15:07 43.94552 9.47436 36294 ft 422 kts 323°
2026-05-01 15:08 43.99164 9.42382 36290 ft 422 kts 323°
2026-05-01 15:08 44.03088 9.38241 36291 ft 422 kts 324°
2026-05-01 15:09 44.07772 9.33382 36292 ft 423 kts 324°
2026-05-01 15:09 44.12497 9.28463 36291 ft 424 kts 324°
2026-05-01 15:10 44.17210 9.23526 36291 ft 424 kts 324°
2026-05-01 15:10 44.24283 9.16082 36291 ft 424 kts 324°
2026-05-01 15:11 44.31352 9.08619 36264 ft 425 kts 324°
2026-05-01 15:12 44.36032 9.03666 36273 ft 425 kts 324°
2026-05-01 15:12 44.43105 8.96160 36265 ft 426 kts 324°
2026-05-01 15:14 44.54905 8.83586 36270 ft 427 kts 323°
2026-05-01 15:14 44.61984 8.76010 36291 ft 427 kts 324°
2026-05-01 15:15 44.71428 8.65868 36311 ft 428 kts 323°
2026-05-01 15:16 44.76168 8.60761 35296 ft 432 kts 323°
2026-05-01 15:16 44.80945 8.55603 34059 ft 432 kts 323°
2026-05-01 15:17 44.85679 8.50479 33070 ft 424 kts 323°
2026-05-01 15:18 44.92594 8.42976 31787 ft 412 kts 323°
2026-05-01 15:18 44.94851 8.40523 31366 ft 408 kts 323°
2026-05-01 15:19 45.01493 8.33287 30129 ft 399 kts 323°
2026-05-01 15:19 45.05834 8.28546 29267 ft 391 kts 323°
2026-05-01 15:19 45.07981 8.26199 28856 ft 387 kts 323°
2026-05-01 15:20 45.12159 8.21506 28107 ft 379 kts 320°
2026-05-01 15:20 45.14122 8.19037 27821 ft 380 kts 319°
2026-05-01 15:20 45.16105 8.16467 27533 ft 393 kts 318°
2026-05-01 15:21 45.18145 8.13807 27233 ft 401 kts 318°
2026-05-01 15:21 45.20203 8.11128 26922 ft 401 kts 319°
2026-05-01 15:21 45.22262 8.08458 26586 ft 399 kts 318°
2026-05-01 15:21 45.24307 8.05814 26285 ft 398 kts 319°
2026-05-01 15:22 45.28386 8.00551 25681 ft 395 kts 319°
2026-05-01 15:22 45.30418 7.97928 25382 ft 394 kts 319°
2026-05-01 15:22 45.32418 7.95345 25084 ft 393 kts 319°
2026-05-01 15:23 45.34441 7.92730 24782 ft 392 kts 319°
2026-05-01 15:23 45.36457 7.90121 24486 ft 391 kts 319°
2026-05-01 15:23 45.38460 7.87526 24189 ft 390 kts 319°
2026-05-01 15:23 45.40464 7.84926 23884 ft 388 kts 319°
2026-05-01 15:24 45.42459 7.82337 23532 ft 387 kts 319°
2026-05-01 15:24 45.44437 7.79766 23206 ft 384 kts 319°
2026-05-01 15:24 45.46409 7.77201 22888 ft 382 kts 318°
2026-05-01 15:24 45.48368 7.74652 22589 ft 380 kts 318°
2026-05-01 15:25 45.50320 7.72108 22317 ft 379 kts 319°
2026-05-01 15:25 45.52263 7.69605 22205 ft 373 kts 319°
2026-05-01 15:25 45.54174 7.67172 22069 ft 375 kts 319°
2026-05-01 15:25 45.56128 7.64694 21957 ft 378 kts 319°
2026-05-01 15:26 45.58102 7.62185 21845 ft 380 kts 319°
2026-05-01 15:26 45.60069 7.59677 21716 ft 380 kts 319°
2026-05-01 15:26 45.62040 7.57160 21587 ft 380 kts 319°
2026-05-01 15:26 45.63894 7.54484 21439 ft 377 kts 309°
2026-05-01 15:27 45.65292 7.51332 21324 ft 377 kts 298°
2026-05-01 15:27 45.66499 7.47996 21187 ft 377 kts 298°
2026-05-01 15:27 45.67696 7.44662 21050 ft 377 kts 298°
2026-05-01 15:28 45.70105 7.38015 20842 ft 375 kts 298°
2026-05-01 15:28 45.71299 7.34752 20764 ft 373 kts 298°
2026-05-01 15:28 45.72486 7.31513 20745 ft 361 kts 298°
2026-05-01 15:29 45.74735 7.25383 20756 ft 335 kts 298°
2026-05-01 15:29 45.75805 7.22462 20764 ft 329 kts 298°
2026-05-01 15:29 45.77976 7.16533 20642 ft 337 kts 298°
2026-05-01 15:30 45.80142 7.10606 20293 ft 330 kts 298°
2026-05-01 15:31 45.84981 6.99051 20298 ft 343 kts 305°
2026-05-01 15:31 45.87720 6.93453 20274 ft 341 kts 305°
2026-05-01 15:32 45.90406 6.87859 19973 ft 342 kts 304°
2026-05-01 15:32 45.93072 6.82247 19411 ft 337 kts 304°
2026-05-01 15:33 45.96995 6.73926 18415 ft 334 kts 303°
2026-05-01 15:34 46.00843 6.65612 17343 ft 329 kts 303°